Wind_Speed
19 22 25 22 22 18 14 11 11 10 21 21 20 23 20 21 23 20 20 21 21 23 21 20 20 18 16 14 14 16 19 22 25 27 29 30 31 31 32 35 39 40 42 42
19 24 19 15 17 19 26 19 18 16 21 21 22 28 23 21 23 25 23 24 26 28 25 20 20 18 17 14 15 18 22 25 28 29 31 33 33 32 35 37 39 40 41 42
23 15 13 22 21 22 22 23 18 18 17 18 22 29 20 15 18 24 25 22 25 28 25 20 20 18 17 15 16 21 25 27 30 31 33 33 33 35 38 38 38 40 42 43
19 25 23 17 20 23 23 19 21 21 14 6 9 7 19 22 20 19 19 19 18 21 22 21 20 19 17 15 19 24 26 28 31 33 35 34 35 37 38 39 40 40 42 43
14 17 21 26 24 19 19 18 14 15 13 14 17 9 15 11 17 18 18 19 18 19 18 18 17 18 17 18 21 25 28 30 32 33 35 35 36 38 39 40 41 41 41 42
26 19 17 18 21 21 16 14 10 9 8 4 18 17 6 17 16 17 16 15 15 15 14 14 15 16 19 21 23 25 28 31 32 33 34 35 38 39 39 40 41 42 43 43
27 27 24 19 18 19 19 13 2 1 2 5 12 13 23 13 13 13 11 11 11 12 12 13 14 17 21 23 24 27 29 31 31 33 32 34 37 38 39 40 42 44 44 41
18 12 30 25 26 15 23 21 6 7 4 3 7 9 6 14 18 15 14 9 8 9 9 12 17 19 21 23 25 27 29 30 30 30 31 33 36 36 37 40 43 44 43 42
11 13 13 22 26 22 17 23 21 4 3 0 7 10 10 10 11 17 16 10 7 4 8 11 14 16 19 21 23 26 28 28 29 28 30 32 33 34 36 37 39 41 41 41
18 7 13 14 18 24 19 16 10 10 3 4 5 9 16 11 21 21 19 13 8 7 11 14 15 16 16 20 23 24 24 25 25 26 29 31 31 33 37 40 42 42 43 40
27 24 11 15 22 31 29 23 14 10 7 4 1 6 10 14 15 16 15 14 11 15 16 17 15 14 17 20 21 21 21 22 22 25 28 29 29 32 36 40 43 44 44 39
25 17 14 21 18 18 27 32 30 17 8 11 3 8 5 8 16 17 11 10 9 17 20 20 15 17 18 19 19 19 19 19 21 24 27 28 28 31 35 38 42 46 41 33
20 13 5 5 16 24 23 29 33 34 15 15 8 5 22 20 15 19 13 11 13 23 25 22 17 19 20 20 19 17 17 17 20 23 25 27 27 30 33 35 40 44 39 33
20 21 17 10 3 5 19 33 30 32 26 18 34 15 15 10 13 18 16 16 24 26 23 19 18 20 21 20 17 16 15 17 19 22 25 26 26 28 30 33 37 40 38 32
22 22 24 32 24 19 14 15 20 39 43 26 28 38 35 22 20 16 20 23 22 19 18 18 20 21 22 18 15 14 14 16 18 20 23 24 25 26 28 30 33 37 37 29
26 23 24 35 32 28 34 37 31 30 32 47 42 39 25 20 26 26 26 25 22 26 23 20 20 21 20 17 14 13 13 15 16 19 21 21 23 25 26 27 29 32 36 31
28 24 22 12 12 11 20 37 42 47 47 41 43 36 37 35 28 23 27 28 30 28 21 19 20 21 20 17 14 12 13 14 15 18 20 19 20 22 24 26 26 29 33 34
21 17 16 6 9 5 13 13 14 22 36 48 48 39 36 33 34 36 37 35 30 22 19 19 20 21 19 15 13 12 14 14 14 16 19 19 19 20 22 23 23 24 29 32
23 20 8 6 14 16 18 12 16 20 26 23 32 32 31 33 29 28 29 24 18 17 18 18 18 18 16 13 13 12 14 14 13 16 18 18 16 17 17 17 18 18 20 23
25 29 26 12 5 6 3 10 5 6 14 13 16 13 19 18 20 12 14 14 14 14 13 14 15 15 14 13 13 12 14 14 13 15 16 17 14 13 13 14 17 18 17 18
28 29 31 24 11 13 16 11 11 5 7 9 8 10 14 15 16 13 14 13 11 10 11 12 14 14 15 14 14 13 14 14 13 15 15 16 14 11 11 10 12 14 16 18
32 23 20 23 15 16 14 21 20 14 10 14 5 4 13 18 16 14 10 10 11 13 14 15 17 17 17 15 15 15 13 16 13 15 15 15 15 11 8 7 8 11 13 15
28 30 29 28 28 11 11 13 11 16 14 12 11 9 6 8 8 10 12 12 13 14 16 16 15 14 16 17 17 17 16 17 16 16 17 15 15 13 12 11 10 10 12 15
33 27 34 29 37 35 24 10 13 8 8 8 12 13 13 14 14 14 15 15 16 16 14 11 9 11 14 17 19 20 21 20 19 17 18 18 16 16 15 13 14 14 14 13
13 15 36 40 23 16 27 9 12 12 13 13 14 14 13 14 14 14 15 14 16 16 17 16 17 18 20 22 22 22 24 24 21 22 20 19 19 19 18 19 18 15 15 16
22 18 21 25 22 22 21 20 18 14 13 17 18 14 15 15 14 14 15 17 18 19 20 21 23 24 25 23 24 27 27 25 24 24 23 22 21 20 20 21 22 21 20 16
Wind_Direction
231 223 227 233 235 220 206 215 223 243 252 263 266 269 264 265 270 261 262 265 258 257 255 252 252 252 257 265 283 294 297 296 297 299 300 300 297 295 298 301 303 304 304 302
230 240 241 234 239 234 236 240 242 258 261 267 271 274 276 271 269 270 263 259 258 256 258 252 247 247 254 266 286 296 294 292 295 299 302 302 300 302 305 304 306 305 303 300
236 248 247 238 236 238 241 244 249 247 261 274 285 285 284 273 260 261 265 261 257 253 257 245 241 242 251 271 288 290 291 292 297 299 299 300 303 306 306 307 307 307 307 304
251 239 242 240 242 238 245 245 243 248 263 260 268 285 271 277 273 260 252 255 247 247 251 237 233 239 255 277 284 289 294 296 300 299 301 302 304 305 309 309 307 307 305 303
225 240 243 241 242 233 232 239 245 248 248 263 264 251 279 273 271 271 260 242 242 245 236 230 232 243 266 279 285 293 298 298 300 301 303 304 308 310 311 310 308 307 305 301
237 244 245 234 233 232 234 236 240 250 241 256 251 234 250 264 268 264 245 226 226 230 230 236 243 261 274 282 286 296 300 300 302 304 305 307 311 312 312 311 310 309 306 303
236 239 244 240 232 228 220 211 151 300 196 225 206 219 241 242 240 257 218 213 219 225 235 249 262 272 279 282 287 295 302 304 304 305 306 309 313 315 315 316 315 311 309 304
221 240 237 235 228 230 217 204 207 199 193 200 219 232 247 241 237 238 210 205 217 231 247 264 273 274 276 280 286 294 300 304 305 308 311 315 318 319 321 323 321 316 311 306
214 228 235 228 220 212 212 210 222 277 244 72 224 257 251 235 242 217 208 216 207 268 293 284 280 281 281 283 289 296 302 306 310 312 316 319 320 323 326 327 326 325 318 310
233 244 232 231 224 222 215 202 198 210 170 246 239 232 239 237 235 212 205 202 216 302 313 302 289 288 287 291 294 297 302 307 311 314 318 321 321 326 327 327 328 328 329 320
227 234 245 240 230 226 220 218 204 199 220 190 188 245 236 239 229 202 205 219 261 291 308 306 294 292 296 297 296 298 303 310 313 316 321 321 324 329 331 333 334 335 331 324
211 222 228 249 248 235 228 230 221 210 212 222 232 233 190 201 182 188 203 221 274 304 311 306 294 296 300 298 298 301 310 315 317 321 322 323 327 331 334 339 340 341 336 330
223 217 196 240 242 238 230 229 226 221 229 227 180 236 232 242 219 215 230 226 286 306 305 300 291 299 301 303 304 308 314 316 320 321 324 326 329 330 335 340 345 345 337 331
244 219 211 211 200 219 222 234 230 228 228 228 231 214 218 223 221 223 220 248 291 297 291 284 289 297 302 303 304 309 314 318 318 321 324 328 330 330 337 340 344 345 343 338
226 236 238 236 243 252 260 257 238 233 231 228 245 241 238 232 243 228 263 277 282 292 285 277 289 296 300 301 302 307 313 313 317 320 325 333 333 331 337 341 344 351 351 347
246 252 259 262 249 248 258 252 252 251 248 245 242 244 244 233 243 252 265 263 271 290 276 273 285 293 299 299 299 299 305 306 314 319 326 335 334 337 339 345 347 355 358 357
238 242 241 257 255 247 263 251 243 244 250 250 245 253 258 257 259 265 261 276 281 280 264 269 282 291 296 292 289 292 297 301 315 319 323 331 334 342 347 351 354 2 3 8
245 246 226 244 175 220 253 258 265 257 258 251 252 258 261 264 262 265 271 276 268 255 256 267 281 285 288 283 284 289 294 301 312 317 320 324 339 347 354 355 360 5 3 11
236 219 204 207 211 267 249 254 274 264 272 267 261 259 258 262 266 257 255 256 237 239 255 270 277 283 282 278 281 286 290 300 310 312 317 321 336 349 353 353 359 6 1 8
227 230 233 211 234 225 237 217 261 288 271 273 265 243 248 234 238 237 221 209 219 241 260 272 277 285 288 282 281 283 283 291 303 304 309 312 326 343 350 358 2 5 7 9
203 214 217 218 233 263 240 228 271 228 274 265 283 270 233 226 203 199 196 202 225 252 266 274 283 282 287 288 280 278 277 281 292 295 300 304 314 332 343 2 359 2 6 11
209 196 208 213 214 251 234 240 243 263 252 264 295 268 160 165 171 183 205 239 262 271 277 280 281 276 276 282 282 277 278 275 282 293 292 295 301 306 308 327 339 344 353 358
208 212 210 213 227 204 223 258 270 243 254 229 187 185 191 189 225 249 257 266 274 281 288 289 286 281 279 275 279 283 274 277 276 283 287 286 291 292 296 302 308 323 333 338
217 218 225 232 243 240 246 250 234 211 201 198 208 222 243 252 257 260 264 268 275 281 287 290 305 314 307 291 282 283 280 276 273 273 281 282 281 285 284 283 295 309 314 319
280 224 224 231 232 223 222 257 230 205 207 218 245 247 248 257 266 271 264 268 279 279 279 287 295 303 304 294 291 285 281 279 274 271 271 277 281 282 283 286 289 293 304 314
268 264 235 234 239 245 246 269 238 237 251 238 237 242 255 265 271 276 277 271 280 289 293 294 293 299 304 294 289 283 283 282 278 272 271 270 270 272 278 281 284 290 294 298
Height
3042 3043 3040 3043 3046 3049 3050 3050 3052 3052 3052 3052 3051 3050 3051 3052 3050 3051 3053 3053 3054 3054 3056 3058 3059 3060 3061 3061 3061 3061 3060 3060 3060 3058 3056 3054 3052 3050 3047 3043 3039 3035 3031 3027
3040 3036 3041 3042 3043 3045 3046 3048 3049 3049 3048 3049 3047 3043 3044 3045 3044 3044 3047 3048 3048 3048 3049 3053 3054 3056 3057 3057 3057 3057 3057 3056 3054 3052 3049 3046 3044 3041 3037 3035 3031 3026 3022 3017
3034 3035 3036 3039 3040 3042 3043 3044 3045 3046 3045 3044 3043 3037 3037 3038 3038 3038 3039 3041 3042 3042 3043 3047 3049 3051 3052 3052 3053 3053 3053 3051 3048 3045 3043 3040 3036 3032 3029 3025 3020 3016 3010 3006
3031 3032 3033 3035 3035 3039 3039 3040 3041 3042 3043 3042 3041 3036 3033 3032 3034 3034 3034 3035 3036 3038 3039 3041 3044 3046 3047 3048 3048 3048 3047 3044 3042 3039 3036 3032 3028 3024 3020 3015 3011 3006 3001 2996
3026 3026 3028 3030 3032 3034 3034 3035 3038 3039 3039 3038 3037 3037 3025 3026 3027 3027 3029 3030 3032 3034 3035 3038 3040 3042 3043 3043 3043 3042 3040 3038 3035 3033 3029 3025 3021 3016 3012 3006 3001 2996 2991 2985
3021 3023 3025 3025 3027 3029 3032 3033 3035 3036 3037 3036 3030 3032 3021 3021 3021 3022 3023 3025 3028 3030 3033 3034 3036 3038 3038 3039 3038 3037 3035 3032 3029 3026 3022 3018 3013 3009 3003 2998 2992 2986 2979 2973
3016 3018 3020 3022 3023 3025 3027 3031 3033 3037 3037 3031 3025 3026 3016 3017 3018 3018 3020 3022 3025 3027 3030 3031 3033 3033 3033 3033 3032 3030 3028 3025 3023 3020 3016 3012 3007 3001 2995 2989 2982 2975 2968 2962
3011 3014 3014 3015 3018 3021 3021 3024 3024 3030 3028 3023 3023 3017 3010 3011 3014 3016 3018 3020 3022 3025 3026 3027 3028 3028 3027 3027 3026 3025 3023 3020 3017 3013 3010 3005 2999 2993 2987 2980 2972 2965 2957 2951
3008 3008 3007 3008 3011 3016 3015 3016 3020 3021 3018 3020 3014 3011 3010 3009 3010 3012 3014 3017 3019 3021 3022 3023 3023 3022 3022 3021 3020 3018 3017 3014 3010 3007 3003 2998 2993 2987 2981 2974 2967 2958 2949 2942
3003 3004 3003 3004 3008 3010 3011 3013 3017 3018 3021 3023 3007 3007 3003 3003 3004 3007 3010 3014 3016 3017 3018 3018 3018 3017 3017 3015 3014 3013 3011 3008 3005 3001 2997 2992 2987 2981 2974 2966 2959 2951 2943 2934
2997 3001 3000 3000 2999 3002 3005 3006 3008 3009 3009 3008 3009 3001 2998 2998 3001 3004 3008 3011 3014 3014 3014 3014 3013 3013 3011 3010 3009 3008 3006 3002 2999 2996 2992 2987 2982 2975 2969 2961 2953 2944 2935 2927
2992 2994 2993 2995 2995 2996 2997 2999 3003 3003 3003 3003 3002 2997 2996 2997 2999 3002 3005 3008 3010 3010 3009 3009 3009 3008 3006 3004 3003 3002 2999 2996 2993 2990 2987 2982 2976 2970 2964 2957 2948 2938 2930 2921
2986 2987 2990 2990 2992 2989 2988 2991 2994 2996 2997 2993 2998 2992 2994 2996 2998 2999 3001 3003 3005 3005 3004 3004 3003 3002 3000 2998 2997 2995 2993 2990 2988 2986 2982 2977 2971 2967 2960 2953 2945 2935 2925 2918
2979 2979 2979 2979 2978 2979 2980 2982 2986 2990 2989 2987 2981 2987 2991 2992 2994 2995 2997 2999 3000 3000 2999 2998 2998 2996 2994 2992 2991 2989 2987 2985 2984 2981 2978 2973 2967 2963 2957 2951 2943 2934 2923 2914
2974 2972 2974 2974 2975 2975 2977 2978 2979 2977 2978 2978 2976 2979 2986 2989 2990 2991 2993 2993 2994 2994 2994 2993 2992 2991 2989 2987 2986 2984 2982 2982 2980 2977 2974 2969 2964 2960 2954 2948 2941 2932 2922 2913
2964 2966 2967 2964 2967 2969 2969 2970 2970 2969 2969 2966 2970 2969 2976 2983 2984 2985 2987 2987 2988 2987 2987 2987 2987 2986 2983 2982 2981 2980 2979 2978 2975 2973 2970 2965 2960 2956 2952 2946 2940 2932 2923 2914
2959 2961 2962 2961 2962 2964 2962 2952 2954 2957 2956 2959 2954 2962 2970 2973 2976 2978 2979 2979 2980 2981 2981 2982 2981 2980 2978 2977 2976 2975 2974 2972 2970 2968 2966 2961 2957 2953 2949 2944 2938 2932 2925 2917
2951 2956 2958 2958 2959 2960 2945 2945 2944 2944 2945 2947 2950 2956 2961 2965 2967 2967 2970 2971 2971 2973 2975 2976 2975 2974 2972 2971 2970 2969 2969 2967 2965 2964 2961 2958 2955 2950 2947 2942 2937 2932 2927 2921
2945 2950 2952 2953 2952 2943 2941 2941 2941 2939 2939 2942 2943 2948 2951 2953 2954 2956 2959 2962 2964 2967 2969 2970 2969 2968 2966 2965 2965 2964 2964 2963 2960 2960 2957 2955 2953 2948 2944 2940 2936 2932 2928 2923
2939 2943 2947 2949 2948 2944 2936 2936 2937 2937 2937 2937 2936 2938 2941 2945 2947 2951 2953 2957 2960 2962 2963 2963 2963 2962 2961 2960 2959 2959 2959 2958 2956 2955 2954 2952 2949 2945 2942 2939 2935 2932 2928 2922
2931 2936 2936 2941 2943 2934 2934 2934 2934 2938 2939 2932 2933 2934 2935 2939 2944 2948 2950 2953 2956 2957 2958 2958 2957 2957 2957 2956 2955 2954 2954 2953 2952 2951 2950 2948 2945 2942 2939 2936 2934 2930 2926 2922
2920 2928 2930 2936 2938 2932 2929 2930 2933 2932 2930 2931 2932 2931 2931 2937 2941 2944 2947 2950 2952 2953 2953 2953 2952 2952 2950 2951 2950 2949 2949 2948 2946 2946 2945 2944 2941 2938 2936 2933 2930 2928 2924 2921
2914 2915 2917 2921 2916 2923 2924 2926 2927 2927 2928 2928 2931 2934 2936 2938 2939 2941 2943 2945 2946 2946 2946 2946 2945 2945 2944 2944 2945 2944 2943 2942 2941 2940 2940 2938 2937 2935 2933 2930 2927 2925 2923 2920
2905 2909 2911 2915 2912 2917 2923 2924 2924 2925 2925 2926 2929 2932 2934 2936 2936 2937 2939 2940 2941 2941 2940 2941 2940 2940 2939 2938 2938 2938 2937 2935 2935 2934 2934 2933 2931 2931 2929 2926 2925 2923 2921 2918
2899 2900 2902 2904 2910 2912 2917 2921 2923 2923 2924 2926 2928 2929 2930 2931 2932 2933 2934 2935 2935 2935 2935 2936 2936 2935 2934 2933 2932 2932 2931 2929 2928 2928 2927 2927 2926 2925 2924 2924 2922 2919 2917 2916
2894 2896 2897 2901 2908 2913 2915 2917 2919 2920 2921 2923 2925 2926 2927 2927 2928 2929 2930 2930 2930 2930 2930 2930 2929 2928 2927 2925 2925 2925 2924 2922 2921 2920 2920 2920 2919 2918 2919 2918 2917 2915 2913 2911